Time,TemperatureF,DewpointF,PressureIn,WindDirection,WindDirectionDegrees,WindSpeedMPH,WindSpeedGustMPH,Humidity,HourlyPrecipIn,Conditions,Clouds,dailyrainin,SolarRadiationWatts/m^2,SoftwareType,DateUTC
2013-07-29 00:02:00,86.0,67.0,-100.00,SE,125,10.0,15.0,54,0.00,,,0.00,0.000000,,2013-07-29 05:02:00,
2013-07-29 00:32:00,84.0,66.0,-100.00,SE,131,10.0,16.0,55,0.00,,,0.00,0.000000,,2013-07-29 05:32:00,
2013-07-29 00:43:00,84.0,66.0,-100.00,SE,131,10.0,16.0,55,0.00,,,0.00,0.000000,,2013-07-29 05:43:00,
2013-07-29 00:53:00,84.0,66.0,-100.00,SE,131,10.0,16.0,55,0.00,,,0.00,0.000000,,2013-07-29 05:53:00,
2013-07-29 01:02:00,84.0,66.0,-100.00,SE,131,10.0,16.0,55,0.00,,,0.00,0.000000,,2013-07-29 06:02:00,
2013-07-29 01:33:00,83.0,67.0,-100.00,SE,139,8.0,15.0,59,0.00,,,0.00,0.000000,,2013-07-29 06:33:00,
2013-07-29 01:43:00,83.0,67.0,-100.00,SE,139,8.0,15.0,59,0.00,,,0.00,0.000000,,2013-07-29 06:43:00,
2013-07-29 01:52:00,83.0,67.0,-100.00,SE,139,8.0,15.0,59,0.00,,,0.00,0.000000,,2013-07-29 06:52:00,
2013-07-29 02:02:00,83.0,67.0,-100.00,SE,139,8.0,15.0,59,0.00,,,0.00,0.000000,,2013-07-29 07:02:00,
2013-07-29 02:33:00,81.0,66.0,-100.00,SE,137,6.0,13.0,61,0.00,,,0.00,0.000000,,2013-07-29 07:33:00,
2013-07-29 02:43:00,81.0,66.0,-100.00,SE,137,6.0,13.0,61,0.00,,,0.00,0.000000,,2013-07-29 07:43:00,
2013-07-29 02:53:00,81.0,66.0,-100.00,SE,137,6.0,13.0,61,0.00,,,0.00,0.000000,,2013-07-29 07:53:00,
2013-07-29 03:02:00,81.0,66.0,-100.00,SE,137,6.0,13.0,61,0.00,,,0.00,0.000000,,2013-07-29 08:02:00,
2013-07-29 03:33:00,81.0,67.0,-100.00,SE,138,5.0,8.0,63,0.00,,,0.00,0.000000,,2013-07-29 08:33:00,
2013-07-29 03:42:00,81.0,67.0,-100.00,SE,138,5.0,8.0,63,0.00,,,0.00,0.000000,,2013-07-29 08:42:00,
2013-07-29 03:52:00,81.0,67.0,-100.00,SE,138,5.0,8.0,63,0.00,,,0.00,0.000000,,2013-07-29 08:52:00,
2013-07-29 04:02:00,81.0,67.0,-100.00,SE,138,5.0,8.0,63,0.00,,,0.00,0.000000,,2013-07-29 09:02:00,
2013-07-29 04:33:00,81.0,68.0,-100.00,SE,142,8.0,11.0,64,0.00,,,0.00,0.000000,,2013-07-29 09:33:00,
2013-07-29 04:43:00,81.0,68.0,-100.00,SE,142,8.0,11.0,64,0.00,,,0.00,0.000000,,2013-07-29 09:43:00,
2013-07-29 04:53:00,81.0,68.0,-100.00,SE,142,8.0,11.0,64,0.00,,,0.00,0.000000,,2013-07-29 09:53:00,
2013-07-29 05:02:00,81.0,68.0,-100.00,SE,142,8.0,11.0,64,0.00,,,0.00,0.000000,,2013-07-29 10:02:00,
2013-07-29 05:39:00,80.0,69.0,-100.00,SE,137,9.0,13.0,69,0.00,,,0.00,0.000000,,2013-07-29 10:39:00,
2013-07-29 05:49:00,80.0,69.0,-100.00,SE,137,9.0,13.0,69,0.00,,,0.00,0.000000,,2013-07-29 10:49:00,
2013-07-29 05:55:00,80.0,69.0,-100.00,SE,137,9.0,13.0,69,0.00,,,0.00,0.000000,,2013-07-29 10:55:00,
2013-07-29 06:04:00,80.0,69.0,-100.00,SE,137,9.0,13.0,69,0.00,,,0.00,0.000000,,2013-07-29 11:04:00,
2013-07-29 06:07:00,80.0,71.0,-100.00,SE,143,10.0,17.0,73,0.00,,,0.00,0.000000,,2013-07-29 11:07:00,
2013-07-29 06:38:00,80.0,71.0,-100.00,SE,143,10.0,17.0,73,0.00,,,0.00,0.000000,,2013-07-29 11:38:00,
2013-07-29 06:59:00,80.0,71.0,-100.00,SE,143,10.0,17.0,73,0.00,,,0.00,0.000000,,2013-07-29 11:59:00,
2013-07-29 07:37:00,79.0,71.0,-100.00,SE,136,10.0,16.0,77,0.00,,,0.00,3.000000,,2013-07-29 12:37:00,
2013-07-29 07:49:00,79.0,71.0,-100.00,SE,136,10.0,16.0,77,0.00,,,0.00,3.000000,,2013-07-29 12:49:00,
2013-07-29 07:58:00,79.0,71.0,-100.00,SE,136,10.0,16.0,77,0.00,,,0.00,3.000000,,2013-07-29 12:58:00,
2013-07-29 08:03:00,79.0,71.0,-100.00,SE,136,10.0,16.0,77,0.00,,,0.00,3.000000,,2013-07-29 13:03:00,
2013-07-29 08:38:00,79.0,72.0,-100.00,SE,144,8.0,14.0,78,0.00,,,0.00,42.000000,,2013-07-29 13:38:00,
2013-07-29 08:45:00,79.0,72.0,-100.00,SE,144,8.0,14.0,78,0.00,,,0.00,42.000000,,2013-07-29 13:45:00,
2013-07-29 08:57:00,79.0,72.0,-100.00,SE,144,8.0,14.0,78,0.00,,,0.00,42.000000,,2013-07-29 13:57:00,
2013-07-29 09:05:00,79.0,72.0,-100.00,SE,144,8.0,14.0,78,0.00,,,0.00,42.000000,,2013-07-29 14:05:00,
2013-07-29 09:07:00,80.0,72.0,-100.00,SE,143,8.0,14.0,77,0.00,,,0.00,93.000000,,2013-07-29 14:07:00,
2013-07-29 09:48:00,80.0,72.0,-100.00,SE,143,8.0,14.0,77,0.00,,,0.00,93.000000,,2013-07-29 14:48:00,
2013-07-29 09:57:00,80.0,72.0,-100.00,SE,143,8.0,14.0,77,0.00,,,0.00,93.000000,,2013-07-29 14:57:00,
2013-07-29 10:39:00,83.0,72.0,-100.00,SSE,149,10.0,17.0,69,0.00,,,0.00,377.000000,,2013-07-29 15:39:00,
2013-07-29 10:45:00,83.0,72.0,-100.00,SSE,149,10.0,17.0,69,0.00,,,0.00,377.000000,,2013-07-29 15:45:00,
2013-07-29 10:55:00,83.0,72.0,-100.00,SSE,149,10.0,17.0,69,0.00,,,0.00,377.000000,,2013-07-29 15:55:00,
2013-07-29 11:05:00,83.0,72.0,-100.00,SSE,149,10.0,17.0,69,0.00,,,0.00,377.000000,,2013-07-29 16:05:00,
2013-07-29 11:07:00,86.0,73.0,-100.00,SE,145,11.0,17.0,66,0.00,,,0.00,615.000000,,2013-07-29 16:07:00,
2013-07-29 11:41:00,86.0,73.0,-100.00,SE,145,11.0,17.0,66,0.00,,,0.00,615.000000,,2013-07-29 16:41:00,
2013-07-29 11:47:00,86.0,73.0,-100.00,SE,145,11.0,17.0,66,0.00,,,0.00,615.000000,,2013-07-29 16:47:00,
2013-07-29 11:57:00,86.0,73.0,-100.00,SE,145,11.0,17.0,66,0.00,,,0.00,615.000000,,2013-07-29 16:57:00,
2013-07-29 12:45:00,86.0,72.0,-100.00,SSE,155,8.0,14.0,64,0.00,,,0.00,433.000000,,2013-07-29 17:45:00,
2013-07-29 12:59:00,86.0,72.0,-100.00,SSE,155,8.0,14.0,64,0.00,,,0.00,433.000000,,2013-07-29 17:59:00,
2013-07-29 13:06:00,86.0,72.0,-100.00,SSE,155,8.0,14.0,64,0.00,,,0.00,433.000000,,2013-07-29 18:06:00,
2013-07-29 13:39:00,90.0,70.0,-100.00,South,172,13.0,19.0,52,0.00,,,0.00,705.000000,,2013-07-29 18:39:00,
2013-07-29 13:47:00,90.0,70.0,-100.00,South,172,13.0,19.0,52,0.00,,,0.00,705.000000,,2013-07-29 18:47:00,
2013-07-29 13:59:00,90.0,70.0,-100.00,South,172,13.0,19.0,52,0.00,,,0.00,705.000000,,2013-07-29 18:59:00,
2013-07-29 14:39:00,94.0,71.0,-100.00,South,176,10.0,19.0,47,0.00,,,0.00,918.000000,,2013-07-29 19:39:00,
2013-07-29 14:48:00,94.0,71.0,-100.00,South,176,10.0,19.0,47,0.00,,,0.00,918.000000,,2013-07-29 19:48:00,
2013-07-29 15:49:00,95.0,67.0,-100.00,SSE,165,12.0,20.0,40,0.00,,,0.00,971.000000,,2013-07-29 20:49:00,
2013-07-29 15:58:00,95.0,67.0,-100.00,SSE,165,12.0,20.0,40,0.00,,,0.00,971.000000,,2013-07-29 20:58:00,
2013-07-29 16:04:00,95.0,67.0,-100.00,SSE,165,12.0,20.0,40,0.00,,,0.00,971.000000,,2013-07-29 21:04:00,
2013-07-29 16:37:00,97.0,65.0,-100.00,South,191,14.0,21.0,35,0.00,,,0.00,904.000000,,2013-07-29 21:37:00,
2013-07-29 16:49:00,97.0,65.0,-100.00,South,191,14.0,21.0,35,0.00,,,0.00,904.000000,,2013-07-29 21:49:00,
2013-07-29 17:00:00,97.0,65.0,-100.00,South,191,14.0,21.0,35,0.00,,,0.00,904.000000,,2013-07-29 22:00:00,
2013-07-29 17:39:00,96.0,60.0,-100.00,SSE,156,12.0,19.0,31,0.00,,,0.00,712.000000,,2013-07-29 22:39:00,
2013-07-29 17:46:00,96.0,60.0,-100.00,SSE,156,12.0,19.0,31,0.00,,,0.00,712.000000,,2013-07-29 22:46:00,
2013-07-29 17:57:00,96.0,60.0,-100.00,SSE,156,12.0,19.0,31,0.00,,,0.00,712.000000,,2013-07-29 22:57:00,
2013-07-29 18:04:00,96.0,60.0,-100.00,SSE,156,12.0,19.0,31,0.00,,,0.00,712.000000,,2013-07-29 23:04:00,
2013-07-29 18:35:00,98.0,62.0,-100.00,South,173,12.0,17.0,31,0.00,,,0.00,594.000000,,2013-07-29 23:35:00,
2013-07-29 18:47:00,98.0,62.0,-100.00,South,173,12.0,17.0,31,0.00,,,0.00,594.000000,,2013-07-29 23:47:00,
2013-07-29 19:35:00,96.0,56.0,-100.00,South,181,11.0,17.0,26,0.00,,,0.00,321.000000,,2013-07-30 00:35:00,
2013-07-29 19:51:00,96.0,56.0,-100.00,South,181,11.0,17.0,26,0.00,,,0.00,321.000000,,2013-07-30 00:51:00,
2013-07-29 20:05:00,96.0,56.0,-100.00,South,181,11.0,17.0,26,0.00,,,0.00,321.000000,,2013-07-30 01:05:00,
2013-07-29 20:38:00,91.0,56.0,-100.00,SSW,195,6.0,15.0,31,0.00,,,0.00,111.000000,,2013-07-30 01:38:00,
2013-07-29 20:46:00,91.0,56.0,-100.00,SSW,195,6.0,15.0,31,0.00,,,0.00,111.000000,,2013-07-30 01:46:00,
2013-07-29 21:00:00,91.0,56.0,-100.00,SSW,195,6.0,15.0,31,0.00,,,0.00,111.000000,,2013-07-30 02:00:00,
2013-07-29 21:07:00,85.0,58.0,-100.00,SSE,153,3.0,6.0,40,0.00,,,0.00,6.000000,,2013-07-30 02:07:00,
2013-07-29 21:39:00,85.0,58.0,-100.00,SSE,153,3.0,6.0,40,0.00,,,0.00,6.000000,,2013-07-30 02:39:00,
2013-07-29 21:56:00,85.0,58.0,-100.00,SSE,153,3.0,6.0,40,0.00,,,0.00,6.000000,,2013-07-30 02:56:00,
2013-07-29 22:36:00,82.0,61.0,-100.00,SE,145,5.0,7.0,49,0.00,,,0.00,0.000000,,2013-07-30 03:36:00,
2013-07-29 22:48:00,82.0,61.0,-100.00,SE,145,5.0,7.0,49,0.00,,,0.00,0.000000,,2013-07-30 03:48:00,
2013-07-29 22:55:00,82.0,61.0,-100.00,SE,145,5.0,7.0,49,0.00,,,0.00,0.000000,,2013-07-30 03:55:00,
2013-07-29 23:03:00,82.0,61.0,-100.00,SE,145,5.0,7.0,49,0.00,,,0.00,0.000000,,2013-07-30 04:03:00,
2013-07-29 23:33:00,80.0,60.0,-100.00,SE,144,5.0,7.0,50,0.00,,,0.00,0.000000,,2013-07-30 04:33:00,
2013-07-29 23:43:00,80.0,60.0,-100.00,SE,144,5.0,7.0,50,0.00,,,0.00,0.000000,,2013-07-30 04:43:00,
2013-07-29 23:53:00,80.0,60.0,-100.00,SE,144,5.0,7.0,50,0.00,,,0.00,0.000000,,2013-07-30 04:53:00,